Location: Winthrop
(48.4780°N, 120.1850°W)
Time: 22:56:57
(UTC-07:00)

A-11 Canister half - Pass Details

Date: 01 June 2023
Orbit: 1515 x 1684 km, 47.2° (Epoch: 29 September)

Event Time Altitude Azimuth Distance (km) Brightness Sun altitude
Exits shadow 04:14:35 - 227° (SW) 4,011 10.5 -7.0°
Reaches altitude 10° 04:15:13 10° 226° (SW) 3,814 10.4 -6.9°
Maximum altitude 04:24:33 56° 151° (SSE) 1,807 9.3 -5.8°
Drops below altitude 10° 04:33:36 10° 77° (ENE) 3,706 12.2 -4.7°
Sets 04:36:40 0° 73° (ENE) 4,678 13.0 -4.3°
